GW1717 Weather Reports


time (UTC)temp
C
wind
direction
speed
KPH
gust
KPH
rain 1hr
cm
rain 24hr
cm
rain mn
cm
humidity
%
barometer
mb
20260504160245 12 52 3.2 4.8 0.00 0.00 0.00 61 1016.0
20260504150710 12 46 3.2 3.2 0.00 0.00 0.00 65 1016.2
20260504150207 12 147 3.2 3.2 0.00 0.00 0.00 65 1016.3
20260504141136 11 81 0.0 1.6 0.00 0.00 0.00 62 1015.9
20260504140633 10 51 0.0 1.6 0.00 0.00 0.00 67 1016.1
20260504140129 10 78 0.0 1.6 0.00 0.00 0.00 77 1016.1
20260504130557 8 82 0.0 1.6 0.00 0.00 0.00 78 1015.0
20260504110445 9 53 0.0 0.0 0.00 0.00 0.00 72 1014.3
20260504100401 9 26 0.0 1.6 0.00 0.00 0.00 68 1014.2
20260504081754 11 82 0.0 0.0 0.00 0.00 0.00 64 1014.1
20260504081251 11 72 0.0 0.0 0.00 0.00 0.00 63 1014.1
20260504080747 11 72 0.0 0.0 0.00 0.00 0.00 63 1013.9
20260504080243 11 74 0.0 0.0 0.00 0.00 0.00 63 1013.9
20260504070211 12 44 0.0 0.0 0.00 0.00 0.00 61 1014.0
20260504060132 12 66 0.0 0.0 0.00 0.00 0.00 60 1013.5
20260504050600 15 100 0.0 0.0 0.00 0.00 0.00 55 1013.6
20260504045554 15 58 0.0 0.0 0.00 0.00 0.00 55 1013.4
20260504045049 15 100 0.0 1.6 0.00 0.00 0.00 52 1013.4
20260504044547 15 46 0.0 0.0 0.00 0.00 0.00 58 1013.5
20260504044043 15 19 4.8 4.8 0.00 0.00 0.00 54 1013.6
20260504043541 15 88 0.0 0.0 0.00 0.00 0.00 52 1013.4
20260504043038 16 53 0.0 1.6 0.00 0.00 0.00 49 1013.5
20260504042535 16 225 1.6 1.6 0.00 0.00 0.00 47 1013.3
20260504042032 16 96 0.0 1.6 0.00 0.00 0.00 48 1013.3
20260504041528 16 222 1.6 1.6 0.00 0.00 0.00 49 1013.2
20260504041024 16 185 1.6 1.6 0.00 0.00 0.00 52 1013.1
20260504040521 16 46 1.6 1.6 0.00 0.00 0.00 54 1013.3
20260504040018 15 88 1.6 1.6 0.00 0.00 0.00 51 1013.2
20260504035515 16 67 0.0 0.0 0.00 0.00 0.00 51 1012.8
20260504035011 16 83 0.0 0.0 0.00 0.00 0.00 50 1012.9
20260504034509 17 48 1.6 1.6 0.00 0.00 0.00 52 1013.0
20260504034006 17 84 0.0 0.0 0.00 0.00 0.00 48 1013.0
20260504033504 17 145 1.6 1.6 0.00 0.00 0.00 47 1012.9
20260504033001 17 88 0.0 0.0 0.00 0.00 0.00 47 1013.1
20260504032457 17 209 1.6 3.2 0.00 0.00 0.00 46 1013.1
20260504031954 17 79 0.0 0.0 0.00 0.00 0.00 47 1012.7
20260504031451 17 84 0.0 0.0 0.00 0.00 0.00 49 1012.8
20260504030948 17 69 0.0 0.0 0.00 0.00 0.00 50 1012.8
20260504030445 17 40 0.0 1.6 0.00 0.00 0.00 51 1012.9
20260504025941 17 26 3.2 4.8 0.00 0.00 0.00 49 1012.8
20260504025438 17 112 0.0 0.0 0.00 0.00 0.00 46 1012.8
20260504024935 18 75 0.0 0.0 0.00 0.00 0.00 46 1012.9
20260504024432 18 46 0.0 0.0 0.00 0.00 0.00 45 1012.8
20260504023929 18 78 0.0 0.0 0.00 0.00 0.00 41 1012.4
20260504023425 18 63 0.0 0.0 0.00 0.00 0.00 44 1012.6
20260504022921 19 68 0.0 0.0 0.00 0.00 0.00 41 1012.7
20260504022418 19 103 0.0 0.0 0.00 0.00 0.00 42 1012.4
20260504021914 19 166 1.6 1.6 0.00 0.00 0.00 41 1012.3
20260504021411 20 11 1.6 3.2 0.00 0.00 0.00 41 1012.6
20260504020909 20 86 1.6 3.2 0.00 0.00 0.00 41 1012.4
20260504020405 20 202 0.0 1.6 0.00 0.00 0.00 40 1012.6
20260504015902 20 163 1.6 3.2 0.00 0.00 0.00 40 1012.4
20260504015358 20 10 1.6 1.6 0.00 0.00 0.00 38 1012.8
20260504014854 20 104 0.0 1.6 0.00 0.00 0.00 40 1012.2
20260504014350 20 91 0.0 0.0 0.00 0.00 0.00 37 1012.4
20260504013847 20 217 1.6 1.6 0.00 0.00 0.00 38 1012.7
20260504013345 20 83 0.0 0.0 0.00 0.00 0.00 38 1012.6
20260504012842 20 132 0.0 0.0 0.00 0.00 0.00 39 1012.3
20260504012339 20 148 0.0 1.6 0.00 0.00 0.00 38 1012.4
20260504011837 20 85 1.6 3.2 0.00 0.00 0.00 32 1012.4
20260504011333 19 67 0.0 0.0 0.00 0.00 0.00 39 1012.7
20260504010829 20 72 0.0 0.0 0.00 0.00 0.00 40 1012.8
20260504010325 20 138 1.6 1.6 0.00 0.00 0.00 42 1012.8
20260504005822 20 65 1.6 1.6 0.00 0.00 0.00 41 1012.7
20260504005319 20 83 0.0 0.0 0.00 0.00 0.00 39 1012.8
20260504004816 20 96 0.0 0.0 0.00 0.00 0.00 41 1012.7
20260504004314 20 94 4.8 4.8 0.00 0.00 0.00 40 1012.8
20260504003810 20 169 1.6 3.2 0.00 0.00 0.00 42 1012.8
20260504003307 20 72 0.0 0.0 0.00 0.00 0.00 41 1012.8
20260504002803 20 109 0.0 0.0 0.00 0.00 0.00 40 1013.0
20260504002300 20 125 1.6 1.6 0.00 0.00 0.00 41 1013.0
20260504001758 20 99 0.0 1.6 0.00 0.00 0.00 43 1013.1
20260504001255 20 95 0.0 1.6 0.00 0.00 0.00 42 1013.2
20260504000752 20 92 1.6 1.6 0.00 0.00 0.00 40 1013.1
20260504000249 20 214 1.6 3.2 0.00 0.00 0.00 37 1012.9
20260503235747 21 100 0.0 1.6 0.00 0.00 0.00 38 1013.2
20260503235244 21 87 0.0 1.6 0.00 0.00 0.00 37 1013.2
20260503234741 21 185 1.6 1.6 0.00 0.00 0.00 37 1013.1
20260503234239 21 135 1.6 1.6 0.00 0.00 0.00 39 1013.1
20260503233736 22 87 0.0 0.0 0.00 0.00 0.00 37 1013.1
20260503233232 22 92 0.0 0.0 0.00 0.00 0.00 36 1013.2
20260503232729 22 349 0.0 0.0 0.00 0.00 0.00 37 1013.3
20260503232226 23 92 0.0 0.0 0.00 0.00 0.00 39 1013.2
20260503231725 23 75 0.0 0.0 0.00 0.00 0.00 30 1013.3
20260503231221 23 134 1.6 1.6 0.00 0.00 0.00 35 1013.3
20260503230717 23 87 0.0 0.0 0.00 0.00 0.00 35 1013.3
20260503230214 24 124 1.6 1.6 0.00 0.00 0.00 33 1013.5
20260503225712 25 75 0.0 0.0 0.00 0.00 0.00 35 1013.4
20260503225211 25 82 0.0 0.0 0.00 0.00 0.00 35 1013.5
20260503224709 25 97 1.6 1.6 0.00 0.00 0.00 28 1013.7
20260503224207 25 74 0.0 0.0 0.00 0.00 0.00 33 1013.7
20260503223704 23 49 0.0 1.6 0.00 0.00 0.00 31 1013.7
20260503223201 23 90 1.6 1.6 0.00 0.00 0.00 28 1013.9
20260503222658 23 80 0.0 0.0 0.00 0.00 0.00 29 1013.9
20260503222155 23 103 0.0 1.6 0.00 0.00 0.00 30 1014.1
20260503221654 23 92 1.6 1.6 0.00 0.00 0.00 29 1014.0
20260503221151 23 55 1.6 3.2 0.00 0.00 0.00 32 1014.3
20260503220647 23 94 0.0 1.6 0.00 0.00 0.00 32 1014.1
20260503220143 23 86 1.6 3.2 0.00 0.00 0.00 32 1014.4
20260503215636 23 76 0.0 1.6 0.00 0.00 0.00 31 1014.3
20260503215132 23 88 1.6 3.2 0.00 0.00 0.00 29 1014.6
20260503214631 23 75 0.0 0.0 0.00 0.00 0.00 31 1014.7
20260503214126 23 85 0.0 0.0 0.00 0.00 0.00 32 1014.9
20260503213620 24 88 0.0 1.6 0.00 0.00 0.00 32 1014.7
20260503213116 22 87 0.0 0.0 0.00 0.00 0.00 31 1014.9
20260503212614 23 77 0.0 1.6 0.00 0.00 0.00 31 1014.9
20260503212111 23 127 0.0 1.6 0.00 0.00 0.00 32 1015.2
20260503211609 22 81 0.0 1.6 0.00 0.00 0.00 34 1015.4
20260503211104 21 70 0.0 1.6 0.00 0.00 0.00 34 1015.4
20260503210601 22 57 1.6 3.2 0.00 0.00 0.00 35 1015.4
20260503210056 21 56 0.0 0.0 0.00 0.00 0.00 35 1015.3
20260503205553 20 60 1.6 3.2 0.00 0.00 0.00 37 1015.4
20260503205049 20 91 0.0 0.0 0.00 0.00 0.00 36 1015.7
20260503204547 21 64 3.2 3.2 0.00 0.00 0.00 35 1015.5
20260503204044 21 79 0.0 1.6 0.00 0.00 0.00 36 1015.6
20260503203541 20 81 0.0 1.6 0.00 0.00 0.00 38 1015.8
20260503203038 20 75 0.0 0.0 0.00 0.00 0.00 37 1016.0
20260503202536 19 74 0.0 0.0 0.00 0.00 0.00 38 1016.0
20260503202034 20 76 0.0 1.6 0.00 0.00 0.00 39 1016.2
20260503201532 20 45 1.6 3.2 0.00 0.00 0.00 38 1016.1
20260503201028 19 77 0.0 0.0 0.00 0.00 0.00 38 1016.1
20260503200524 19 46 1.6 1.6 0.00 0.00 0.00 39 1016.3
20260503200021 19 93 0.0 1.6 0.00 0.00 0.00 42 1016.3
20260503195519 19 77 0.0 0.0 0.00 0.00 0.00 43 1016.6
20260503195015 18 88 0.0 1.6 0.00 0.00 0.00 39 1016.5
20260503194513 20 64 1.6 3.2 0.00 0.00 0.00 41 1016.8
20260503194012 18 48 3.2 3.2 0.00 0.00 0.00 42 1016.9
20260503193509 18 37 4.8 4.8 0.00 0.00 0.00 40 1016.9
20260503193004 17 57 1.6 1.6 0.00 0.00 0.00 42 1016.9
20260503192501 17 80 0.0 0.0 0.00 0.00 0.00 43 1017.0
20260503191956 17 86 0.0 0.0 0.00 0.00 0.00 45 1017.1
20260503191454 17 66 1.6 1.6 0.00 0.00 0.00 42 1017.3
20260503190950 17 67 0.0 1.6 0.00 0.00 0.00 44 1017.2
20260503190447 16 91 1.6 1.6 0.00 0.00 0.00 46 1017.4
20260503185944 15 35 1.6 1.6 0.00 0.00 0.00 47 1017.4
20260503185441 16 69 1.6 1.6 0.00 0.00 0.00 46 1017.7
20260503184940 17 83 0.0 0.0 0.00 0.00 0.00 49 1017.6
20260503184437 16 58 1.6 1.6 0.00 0.00 0.00 45 1017.7
20260503183933 16 102 1.6 1.6 0.00 0.00 0.00 45 1017.8
20260503183430 16 65 1.6 3.2 0.00 0.00 0.00 49 1017.9
20260503182927 17 94 1.6 1.6 0.00 0.00 0.00 46 1017.7
20260503182426 16 77 3.2 3.2 0.00 0.00 0.00 46 1017.6
20260503181923 16 78 1.6 1.6 0.00 0.00 0.00 46 1017.8
20260503181420 16 77 1.6 3.2 0.00 0.00 0.00 46 1018.1
20260503180916 15 55 1.6 3.2 0.00 0.00 0.00 48 1018.1
20260503180414 16 74 0.0 1.6 0.00 0.00 0.00 50 1018.3
20260503175911 15 77 0.0 0.0 0.00 0.00 0.00 55 1018.0
20260503175409 15 82 0.0 1.6 0.00 0.00 0.00 50 1018.2
20260503174904 15 75 0.0 0.0 0.00 0.00 0.00 52 1018.2
20260503174402 14 75 1.6 1.6 0.00 0.00 0.00 52 1018.2
20260503173857 14 55 3.2 4.8 0.00 0.00 0.00 51 1018.2
20260503173354 14 69 4.8 4.8 0.00 0.00 0.00 53 1018.7
20260503172850 14 96 1.6 1.6 0.00 0.00 0.00 49 1018.8
20260503172348 14 88 1.6 1.6 0.00 0.00 0.00 50 1018.9
20260503171844 13 120 4.8 8.0 0.00 0.00 0.00 52 1019.1
20260503171341 13 83 4.8 8.0 0.00 0.00 0.00 52 1019.0
20260503170838 14 53 3.2 3.2 0.00 0.00 0.00 51 1018.9
20260503170335 14 62 3.2 3.2 0.00 0.00 0.00 53 1019.2